SAS585 EKCH-LEPA

Flight info

Callsign SAS585
Flight time N/A
Altitude 40000
Route NEXEN T503 GIMRU DCT MICOS DCT WRB DCT XAROL DCT BOMBI DCT GIGET DCT ABUKA DCT KRH DCT NATOR/N0476F410 DCT LUTIX DCT BENOT DCT NEMOS DCT GEVEA DCT INCUS DCT BALSI DCT RETNO DCT TUPOX DCT MTG DCT DIVKO DCT VATIR N852 VERSO L129 LUNIK
Aircraft A359/H-SDE2E3GHIJ3J4J5LM1ORWXY/LB1D1

Departure

Time 2026-04-30 13:11
Airport Copenhagen Kastrup Airport (EKCH)

Arrival

Time N/A
Airport Palma de Mallorca Airport (LEPA)
Time Latitude Longitude Altitude Speed Heading
2026-04-30 12:50 55.62432 12.65058 30 ft 0 kts 269°
2026-04-30 12:59 55.62432 12.65080 28 ft 3 kts 269°
2026-04-30 13:00 55.62433 12.65116 29 ft 3 kts 269°
2026-04-30 13:00 55.62433 12.65148 29 ft 3 kts 258°
2026-04-30 13:00 55.62440 12.65175 27 ft 3 kts 210°
2026-04-30 13:00 55.62458 12.65186 28 ft 3 kts 184°
2026-04-30 13:01 55.62471 12.65186 29 ft 1 kts 179°
2026-04-30 13:01 55.62488 12.65185 30 ft 3 kts 179°
2026-04-30 13:01 55.62508 12.65184 27 ft 3 kts 179°
2026-04-30 13:01 55.62522 12.65184 28 ft 0 kts 179°
2026-04-30 13:04 55.62521 12.65184 28 ft 2 kts 179°
2026-04-30 13:04 55.62467 12.65193 29 ft 11 kts 172°
2026-04-30 13:04 55.62372 12.65203 30 ft 16 kts 178°
2026-04-30 13:05 55.62243 12.65193 30 ft 21 kts 193°
2026-04-30 13:05 55.62107 12.65062 30 ft 24 kts 213°
2026-04-30 13:05 55.61954 12.64884 30 ft 28 kts 213°
2026-04-30 13:06 55.61632 12.64514 30 ft 29 kts 213°
2026-04-30 13:06 55.61485 12.64345 30 ft 20 kts 213°
2026-04-30 13:06 55.61361 12.64203 30 ft 23 kts 213°
2026-04-30 13:06 55.61219 12.64039 30 ft 26 kts 213°
2026-04-30 13:07 55.61061 12.63857 30 ft 28 kts 213°
2026-04-30 13:07 55.60894 12.63665 30 ft 28 kts 213°
2026-04-30 13:07 55.60752 12.63503 30 ft 15 kts 213°
2026-04-30 13:07 55.60654 12.63384 30 ft 19 kts 217°
2026-04-30 13:08 55.60603 12.63313 30 ft 1 kts 219°
2026-04-30 13:08 55.60592 12.63296 30 ft 4 kts 219°
2026-04-30 13:08 55.60562 12.63253 30 ft 8 kts 219°
2026-04-30 13:08 55.60512 12.63179 30 ft 11 kts 219°
2026-04-30 13:09 55.60433 12.63130 30 ft 13 kts 167°
2026-04-30 13:09 55.60363 12.63250 31 ft 15 kts 126°
2026-04-30 13:09 55.60374 12.63393 32 ft 13 kts 47°
2026-04-30 13:09 55.60396 12.63431 31 ft 0 kts 43°
2026-04-30 13:10 55.60399 12.63435 31 ft 3 kts 43°
2026-04-30 13:10 55.60639 12.63808 32 ft 99 kts 41°
2026-04-30 13:10 55.61389 12.64971 260 ft 172 kts 39°
2026-04-30 13:11 55.62369 12.66469 1282 ft 199 kts 37°
2026-04-30 13:11 55.63449 12.68139 1892 ft 217 kts 37°
2026-04-30 13:11 55.64649 12.69999 2212 ft 240 kts 39°
2026-04-30 13:11 55.65934 12.71983 2844 ft 247 kts 37°
2026-04-30 13:12 55.67261 12.73965 3586 ft 250 kts 36°
2026-04-30 13:12 55.68595 12.75945 4340 ft 251 kts 37°
2026-04-30 13:12 55.69938 12.77945 5099 ft 253 kts 38°
2026-04-30 13:13 55.72248 12.82672 6526 ft 262 kts 66°
2026-04-30 13:13 55.72484 12.85891 7243 ft 270 kts 93°
2026-04-30 13:13 55.70380 12.91374 8576 ft 291 kts 150°
2026-04-30 13:14 55.68398 12.92186 9248 ft 299 kts 180°
2026-04-30 13:14 55.66328 12.91704 9953 ft 303 kts 189°
2026-04-30 13:14 55.62083 12.91712 10873 ft 319 kts 167°
2026-04-30 13:15 55.59801 12.91978 11092 ft 340 kts 182°
2026-04-30 13:15 55.55452 12.88310 11874 ft 363 kts 227°
2026-04-30 13:15 55.54051 12.84607 12373 ft 365 kts 248°
2026-04-30 13:16 55.52970 12.80517 12844 ft 372 kts 241°
2026-04-30 13:16 55.51383 12.76884 13381 ft 377 kts 227°
2026-04-30 13:16 55.49638 12.73392 13893 ft 382 kts 231°
2026-04-30 13:17 55.46229 12.66089 14871 ft 389 kts 231°
2026-04-30 13:17 55.44491 12.62404 15382 ft 392 kts 231°
2026-04-30 13:17 55.40986 12.55038 16371 ft 398 kts 230°
2026-04-30 13:18 55.39171 12.51246 16880 ft 401 kts 230°
2026-04-30 13:18 55.35567 12.43742 17879 ft 407 kts 230°
2026-04-30 13:18 55.33730 12.39928 18360 ft 411 kts 230°
2026-04-30 13:19 55.31875 12.36085 18828 ft 414 kts 230°
2026-04-30 13:19 55.30008 12.32221 19274 ft 416 kts 230°
2026-04-30 13:19 55.28134 12.28349 19722 ft 418 kts 230°
2026-04-30 13:19 55.26244 12.24451 20178 ft 420 kts 231°
2026-04-30 13:20 55.24348 12.20547 20624 ft 421 kts 231°
2026-04-30 13:20 55.22451 12.16648 21140 ft 420 kts 231°
2026-04-30 13:20 55.20483 12.12844 21597 ft 423 kts 225°
2026-04-30 13:20 55.18219 12.09535 22015 ft 426 kts 217°
2026-04-30 13:21 55.15828 12.06460 22394 ft 429 kts 216°
2026-04-30 13:21 55.13399 12.03381 22816 ft 431 kts 216°
2026-04-30 13:21 55.10964 12.00291 23247 ft 434 kts 216°
2026-04-30 13:22 55.06064 11.94064 24064 ft 438 kts 217°
2026-04-30 13:22 55.03594 11.90927 24415 ft 440 kts 217°
2026-04-30 13:22 54.98629 11.84632 25142 ft 444 kts 217°
2026-04-30 13:23 54.96124 11.81464 25502 ft 445 kts 217°
2026-04-30 13:23 54.91083 11.75101 26215 ft 450 kts 217°
2026-04-30 13:24 54.85985 11.68686 27029 ft 454 kts 217°
2026-04-30 13:24 54.80842 11.62235 27887 ft 459 kts 217°
2026-04-30 13:25 54.75646 11.55725 28766 ft 463 kts 217°
2026-04-30 13:25 54.70384 11.49171 29647 ft 469 kts 217°
2026-04-30 13:26 54.62355 11.39213 30924 ft 477 kts 217°
2026-04-30 13:26 54.56945 11.32529 31830 ft 478 kts 217°
2026-04-30 13:27 54.51506 11.25863 32575 ft 483 kts 216°
2026-04-30 13:28 54.43248 11.15844 33577 ft 491 kts 216°
2026-04-30 13:28 54.37637 11.09062 34296 ft 495 kts 216°
2026-04-30 13:28 54.34813 11.05656 34599 ft 497 kts 216°
2026-04-30 13:29 54.28894 10.99457 35186 ft 501 kts 205°
2026-04-30 13:29 54.22545 10.94621 36016 ft 498 kts 203°
2026-04-30 13:30 54.12984 10.87791 37161 ft 496 kts 202°
2026-04-30 13:31 54.06635 10.83267 37898 ft 494 kts 203°
2026-04-30 13:31 53.97144 10.76488 38913 ft 493 kts 203°
2026-04-30 13:32 53.90842 10.71998 39475 ft 491 kts 203°
2026-04-30 13:32 53.84534 10.67519 39935 ft 491 kts 203°
2026-04-30 13:33 53.78228 10.63057 40359 ft 491 kts 203°
2026-04-30 13:33 53.71897 10.58592 40474 ft 495 kts 203°
2026-04-30 13:34 53.68723 10.56359 40481 ft 494 kts 203°
2026-04-30 13:35 53.56018 10.47457 40474 ft 495 kts 202°
2026-04-30 13:36 53.43342 10.38632 40472 ft 495 kts 202°
2026-04-30 13:36 53.33795 10.32024 40466 ft 495 kts 202°
2026-04-30 13:37 53.24248 10.25448 40463 ft 494 kts 202°
2026-04-30 13:38 53.14715 10.18914 40460 ft 494 kts 202°
2026-04-30 13:39 53.02008 10.10252 40455 ft 494 kts 202°
2026-04-30 13:40 52.92472 10.03788 40454 ft 494 kts 202°
2026-04-30 13:40 52.86111 9.99493 40457 ft 494 kts 202°
2026-04-30 13:41 52.79745 9.95209 40456 ft 494 kts 202°
2026-04-30 13:41 52.73373 9.90934 40458 ft 494 kts 202°
2026-04-30 13:42 52.67002 9.86673 40456 ft 494 kts 202°
2026-04-30 13:42 52.57438 9.80302 40457 ft 494 kts 201°
2026-04-30 13:43 52.51059 9.76069 40455 ft 495 kts 201°
2026-04-30 13:43 52.44668 9.71842 40455 ft 495 kts 201°
2026-04-30 13:44 52.38281 9.67631 40454 ft 495 kts 201°
2026-04-30 13:44 52.31888 9.63428 40458 ft 496 kts 201°
2026-04-30 13:45 52.22323 9.57165 40454 ft 496 kts 201°
2026-04-30 13:46 52.15918 9.52988 40452 ft 496 kts 201°
2026-04-30 13:46 52.09508 9.48820 40450 ft 496 kts 201°
2026-04-30 13:47 52.03102 9.44668 40438 ft 496 kts 201°
2026-04-30 13:47 51.97719 9.41189 40445 ft 496 kts 201°
2026-04-30 13:48 51.90269 9.36389 40432 ft 496 kts 201°
2026-04-30 13:48 51.83851 9.32267 40445 ft 496 kts 201°
2026-04-30 13:49 51.78476 9.28824 40424 ft 496 kts 201°
2026-04-30 13:49 51.72054 9.24722 40437 ft 496 kts 201°
2026-04-30 13:50 51.65634 9.20635 40426 ft 496 kts 201°
2026-04-30 13:50 51.55985 9.14515 40425 ft 497 kts 201°
2026-04-30 13:51 51.49467 9.10843 40424 ft 496 kts 192°
2026-04-30 13:51 51.42738 9.08346 40422 ft 496 kts 191°
2026-04-30 13:52 51.35988 9.06072 40407 ft 496 kts 190°
2026-04-30 13:52 51.29224 9.03864 40413 ft 496 kts 188°
2026-04-30 13:53 51.22392 9.02441 40419 ft 495 kts 184°
2026-04-30 13:53 51.15544 9.01293 40417 ft 495 kts 185°
2026-04-30 13:54 51.08715 9.00046 40421 ft 494 kts 185°
2026-04-30 13:54 51.01929 8.98719 40412 ft 494 kts 186°
2026-04-30 13:55 50.95052 8.97351 40402 ft 495 kts 186°
2026-04-30 13:55 50.88272 8.96008 40396 ft 494 kts 185°
2026-04-30 13:56 50.81442 8.94663 40390 ft 494 kts 185°
2026-04-30 13:56 50.74615 8.93325 40382 ft 494 kts 185°
2026-04-30 13:57 50.67786 8.91991 40377 ft 494 kts 185°
2026-04-30 13:57 50.60962 8.90661 40373 ft 494 kts 185°
2026-04-30 13:58 50.50722 8.88673 40374 ft 494 kts 185°
2026-04-30 13:59 50.43892 8.87351 40372 ft 494 kts 185°
2026-04-30 13:59 50.37061 8.86033 40364 ft 494 kts 185°
2026-04-30 14:00 50.30236 8.84721 40362 ft 494 kts 185°
2026-04-30 14:00 50.19986 8.82757 40355 ft 495 kts 185°
2026-04-30 14:01 50.13163 8.81454 40353 ft 495 kts 185°
2026-04-30 14:01 50.06323 8.80152 40352 ft 494 kts 185°
2026-04-30 14:02 49.99502 8.78790 40352 ft 494 kts 186°
2026-04-30 14:02 49.92685 8.77352 40345 ft 494 kts 186°
2026-04-30 14:03 49.85873 8.75921 40345 ft 494 kts 186°
2026-04-30 14:03 49.79057 8.74506 40340 ft 494 kts 186°
2026-04-30 14:04 49.72245 8.73103 40334 ft 494 kts 186°
2026-04-30 14:04 49.65438 8.71706 40335 ft 494 kts 186°
2026-04-30 14:05 49.58615 8.70335 40338 ft 494 kts 186°
2026-04-30 14:05 49.51788 8.68969 40346 ft 494 kts 186°
2026-04-30 14:06 49.41554 8.66921 40348 ft 494 kts 186°
2026-04-30 14:07 49.31332 8.64847 40331 ft 494 kts 186°
2026-04-30 14:08 49.21111 8.62785 40300 ft 494 kts 186°
2026-04-30 14:08 49.10898 8.60738 40280 ft 493 kts 186°
2026-04-30 14:09 49.04093 8.59379 40281 ft 493 kts 186°
2026-04-30 14:10 48.93962 8.57054 40268 ft 493 kts 191°
2026-04-30 14:10 48.87265 8.54739 40270 ft 493 kts 192°
2026-04-30 14:11 48.80572 8.52410 40271 ft 493 kts 191°
2026-04-30 14:11 48.73869 8.50195 40264 ft 493 kts 191°
2026-04-30 14:12 48.67149 8.48036 40265 ft 495 kts 191°
2026-04-30 14:12 48.60417 8.45889 40262 ft 494 kts 191°
2026-04-30 14:13 48.53683 8.43743 40257 ft 495 kts 191°
2026-04-30 14:13 48.46958 8.41600 40253 ft 494 kts 191°
2026-04-30 14:14 48.40222 8.39460 40256 ft 494 kts 191°
2026-04-30 14:14 48.27741 8.35510 40245 ft 494 kts 191°
2026-04-30 14:15 48.14620 8.29671 40242 ft 493 kts 210°
2026-04-30 14:15 48.03009 8.18736 40239 ft 494 kts 213°
2026-04-30 14:16 47.93423 8.09428 40223 ft 495 kts 213°
2026-04-30 14:16 47.79985 7.96600 40223 ft 490 kts 213°
2026-04-30 14:17 47.68493 7.85692 40193 ft 488 kts 213°
2026-04-30 14:17 47.57061 7.74899 40188 ft 488 kts 214°
2026-04-30 14:18 47.45608 7.64141 40184 ft 487 kts 213°
2026-04-30 14:18 47.28500 7.48183 40184 ft 486 kts 214°
2026-04-30 14:19 47.12670 7.30099 40195 ft 479 kts 232°
2026-04-30 14:20 47.04396 7.14829 40204 ft 478 kts 234°
2026-04-30 14:20 46.91898 6.92095 40187 ft 478 kts 228°
2026-04-30 14:21 46.81807 6.79365 40185 ft 479 kts 220°
2026-04-30 14:22 46.66250 6.61015 40173 ft 480 kts 220°
2026-04-30 14:22 46.50701 6.42715 40163 ft 479 kts 220°
2026-04-30 14:23 46.30000 6.18580 40154 ft 476 kts 219°
2026-04-30 14:24 46.17815 6.11412 40155 ft 481 kts 191°
2026-04-30 14:24 46.11210 6.09920 40156 ft 482 kts 189°
2026-04-30 14:25 45.84692 6.04210 40129 ft 481 kts 190°
2026-04-30 14:26 45.64851 5.99829 40102 ft 481 kts 190°
2026-04-30 14:27 45.45027 5.95436 40114 ft 480 kts 192°
2026-04-30 14:27 45.32874 5.91527 40129 ft 479 kts 195°
2026-04-30 14:28 45.13357 5.85364 40146 ft 479 kts 194°
2026-04-30 14:28 45.00342 5.81349 40144 ft 478 kts 195°